Flag for Germany Weather past 2 weeks in Gorleben, Lower Saxony, Germany

Now
53 °F

Low clouds.


Feels Like: 53 °F
Forecast: 47 / 58 °F
Wind: 2 mph from Northwest

Location: Marnitz

Current Time: Oct 22, 2014 at 3:59:30 PM

Latest Report: Oct 22, 2014 at 3:00 PM


Visibility: 13 mi

Pressure: 29.69 "Hg

Humidity: 91%

Dew point: 51 °F

Location of GorlebenLocation

Historic Weather in Gorleben — Graph

°F

Gorleben temperature yesterday

Maximum temperature yesterday: 56 °F (at 3:00 PM)
Minimum temperature yesterday: 51 °F (at 2:00 AM)
Average temperature yesterday: 53 °F

Past Weeks' High & Low Weather Summary

 TemperatureHumidityPressure
High71 °F (Oct 19, 3:00 PM)100% (Oct 14, 9:00 AM)30.19 "Hg (Oct 14, 9:00 AM)
Low46 °F (Oct 15, 7:00 AM)64% (Oct 8, 1:00 PM)29.38 "Hg (Oct 21, 9:00 PM)
Average56 °F90%29.81 "Hg
* Reported Oct 7 3:00 PM — Oct 22 3:00 PM, Gorleben, Weather by CustomWeather, © 2014

Note: Actual official high and low records may vary slightly from our data, if they occured in-between our weather recording intervals... More about our weather records

Advertising

Gorleben weather history for previous 24 hours

 ConditionsComfort  
Time TempWeatherWind HumidityBarometerVisibility
3:00 PM
Oct 22
53 °FLow clouds.2 mph91%29.69 "Hg13 mi
2:00 PM52 °FLow clouds.3 mph93%29.66 "Hg6 mi
1:00 PM51 °FLow clouds.3 mph94%29.64 "Hg10 mi
12:00 PM49 °FLow clouds.3 mph96%29.63 "Hg6 mi
11:00 AM49 °FLight rain. Low clouds.3 mph96%29.61 "Hg6 mi
10:00 AM49 °FLight rain. Low clouds.5 mph96%29.59 "Hg8 mi
9:00 AM48 °FDrizzle. Low clouds.3 mph97%29.57 "Hg2 mi
8:00 AM48 °FDrizzle. Low clouds.3 mph97%29.55 "Hg4 mi
7:00 AM47 °FLight freezing rain. Low clouds.5 mph96%29.54 "Hg3 mi
6:00 AM47 °FDrizzle. Overcast.5 mph93%29.53 "Hg11 mi
5:00 AM47 °FOvercast.6 mph94%29.54 "Hg11 mi
4:00 AM47 °FLight rain. Overcast.6 mph94%29.53 "Hg6 mi
3:00 AM48 °FLight rain. Low clouds.6 mph94%29.50 "Hg4 mi
2:00 AM49 °FLight rain. Overcast.6 mph94%29.47 "Hg4 mi
1:00 AM50 °FDrizzle. Overcast.5 mph94%29.44 "Hg11 mi
12:00 AM51 °FDrizzle. Overcast.5 mph95%29.41 "Hg3 mi
11:00 PM
Oct 21
52 °FLow clouds.6 mph92%29.38 "Hg16 mi
10:00 PM52 °FLight freezing rain. Overcast.5 mph95%29.38 "Hg2 mi
9:00 PM52 °FDrizzle. Overcast.3 mph95%29.38 "Hg2 mi
8:00 PM52 °FLight freezing rain. Overcast.5 mph94%29.41 "Hg5 mi
7:00 PM53 °FOvercast.3 mph91%29.44 "Hg17 mi
6:00 PM53 °FLight rain. Overcast.3 mph91%29.47 "Hg10 mi
5:00 PM53 °FLight rain. Overcast.3 mph90%29.50 "Hg17 mi
4:00 PM54 °FLight freezing rain. Overcast.3 mph89%29.54 "Hg14 mi
3:00 PM56 °FOvercast.3 mph82%29.56 "Hg22 mi
Weather by CustomWeather, © 2014

See weather overviewHow to use our weather pages